Regional Weather Roundup
Issued by NWS

Home | Current Version | Previous Version | Text Only | Print | Product List | Glossary Off
Versions: 1 2 3 4 5 6 7 8 9 10 11 12 13 14 15 16 17 18 19 20 21 22 23 24 25 26 27 28 29 30 31 32 33 34 35 36 37 38 39 40 41 42 43 44 45 46 47 48 49 50

000
ASUS45 KSLC 041510
RWRUT

UTAH REGIONAL WEATHER ROUNDUP
NATIONAL WEATHER SERVICE SALT LAKE CITY UT
900 AM MDT FRI SEP 04 2015

UTZ001>011-023>025-041600-

NORTHERN UTAH

CITY           SKY/WX    TMP DP  RH WIND       PRES   REMARKS
BRIGHAM CITY   SUNNY     69  39  33 CALM      29.86S
HILL AFB       MOSUNNY   74  37  25 S20G26    29.88R
LOGAN          SUNNY     58  48  69 CALM      29.88R
OGDEN          MOSUNNY   77  36  22 S16G28    29.85S
PROVO AIRPORT  MOSUNNY   70  39  32 E10       29.93R
SALT LAKE CITY PTSUNNY   76  37  24 S20G25    29.86S
VERNAL         SUNNY     66  41  40 CALM      30.01S
WENDOVER       SUNNY     63  37  39 SE5       29.86S
HEBER CITY     SUNNY     70  32  24 S8        29.97S
WEST JORDAN    SUNNY     73  39  29 S15       29.91R

$$

UTZ012>022-026-027-041600-

SOUTHERN/CENTRAL UTAH

CITY           SKY/WX    TMP DP  RH WIND       PRES   REMARKS
BLANDING       CLOUDY    64  49  57 E3        30.19S
BRYCE CANYON   SUNNY     59  42  53 SE8       30.18R
CEDAR CITY     SUNNY     69  40  34 S18G24    30.01R
DELTA          SUNNY     70  33  26 S13G18    29.94R
HANKSVILLE     MOSUNNY   70  46  43 NW3       29.99S
MILFORD        SUNNY     69  41  36 S18       29.95F
MOAB/CYNLANDS  PTSUNNY   74  47  38 SE3       29.98R
PRICE          MOSUNNY   59  37  44 CALM      30.05R
ST GEORGE      SUNNY     79  48  34 SE17      29.90S
KANAB          SUNNY     68  55  64 CALM      30.10R

$$

REGIONAL REPORTS     COLORADO/ARIZONA

CITY           SKY/WX    TMP DP  RH WIND       PRES   REMARKS
CRAIG, CO      MOSUNNY   58  47  66 CALM      30.10F
GRAND JUNCTION MOSUNNY   67  50  54 SE21      30.03R
RIFLE          MOSUNNY   59  51  75 W3        30.09S
MONTROSE       CLOUDY    61  49  64 SE8       30.14R
CORTEZ         CLOUDY    65  49  56 CALM      30.13R
PAGE, AZ       MOSUNNY   73  52  47 VRB3      29.99R
GRAND CANYON   SUNNY     61  53  75 S8        30.17R
KINGMAN        SUNNY     75  54  47 NE6       29.95R
FLAGSTAFF      MOSUNNY   55  52  89 CALM      30.21R

$$

REGIONAL REPORTS    NEVADA/IDAHO/WYOMING

CITY           SKY/WX    TMP DP  RH WIND       PRES   REMARKS
LAS VEGAS, NV  MOSUNNY   80  40  23 S9        29.79R
ELY            SUNNY     64  31  28 S26G32    29.95R
ELKO           SUNNY     53  35  50 E5        29.90R
POCATELLO, ID  SUNNY     54  38  54 SW7       29.92R
BURLEY         PTSUNNY   53  41  63 SW3       29.87F
EVANSTON, WY   SUNNY     66  31  27 S18       30.05S
ROCK SPRINGS   SUNNY     64  38  38 NE5       30.08R
KEMMERER       MOSUNNY   59  30  33 S7        30.08S

$$



USA.gov is the U.S. government's official web portal to all federal, state and local government web resources and services.